Weather History for Chicago Executive, IL

Change the Weather History Date:

Tuesday, November 5, 2013

  Actual Average Record
Temperature  
Mean Temperature 54 °F 45 °F  
Max Temperature 57 °F 53 °F 71 °F (2008)
Min Temperature 51 °F 36 °F 28 °F (2010)
Degree Days  
Heating Degree Days 11 20  
Month to date heating degree days 87 97  
Since 1 July heating degree days 549 618  
Cooling Degree Days 0 0  
Month to date cooling degree days 0 0  
Year to date cooling degree days 918 789  
Growing Degree Days 4 (Base 50)    
Moisture  
Dew Point 47 °F    
Average Humidity 77    
Maximum Humidity 89    
Minimum Humidity 66    
Precipitation  
Precipitation 0.02 in 0.12 in 0.22 in (1997)
Month to date precipitation 0.08 0.55  
Year to date precipitation 26.20 29.18  
Sea Level Pressure  
Sea Level Pressure 30.16 in    
Wind  
Wind Speed 10 mph (South)    
Max Wind Speed 26 mph    
Max Gust Speed 37 mph    
Visibility 9 miles    
Events Rain    
T = Trace of Precipitation, MM = Missing Value Source: NWS Daily Summary

Daily Weather History Graph

Daily Weather History Graph

Search for Another Location

Airport:

Trip Planner

Search our weather history database for the weather conditions in past years. The results will help you decide how hot, cold, wet, or windy it might be!

Date:

Astronomy

Nov. 05, 2013 Rise Set
Actual Time 6:29 AM CST 4:40 PM CST
Civil Twilight 6:00 AM CST 5:09 PM CST
Nautical Twilight 5:27 AM CST 5:42 PM CST
Astronomical Twilight 4:54 AM CST 6:15 PM CST
Moon 8:45 AM CST (11/5) 6:39 PM CST (11/5)
Length of Visible Light 11h 09m
Length of Day
10h 10m
Waxing Crescent, 7% of the Moon is Illuminated
Nov 5
Waxing Crescent
Nov 9
First Quarter
Nov 17
Full
Nov 25
Last Quarter
Dec 2
New

Hourly Weather History & Observations

Time (CST) Temp. Dew Point Humidity Pressure Visibility Wind Dir Wind Speed Gust Speed Precip Events Conditions
12:52 AM 54.0 °F 43.0 °F 66% 30.22 in 10.0 mi SSW 5.8 mph - N/A   Overcast
1:52 AM 53.1 °F 43.0 °F 69% 30.23 in 10.0 mi South 4.6 mph - N/A   Overcast
2:52 AM 53.1 °F 44.1 °F 71% 30.23 in 10.0 mi South 4.6 mph - N/A   Overcast
3:52 AM 53.1 °F 44.1 °F 71% 30.25 in 10.0 mi South 5.8 mph - N/A   Overcast
4:52 AM 53.1 °F 44.1 °F 71% 30.25 in 10.0 mi South 4.6 mph - N/A   Overcast
5:52 AM 51.1 °F 45.0 °F 80% 30.26 in 10.0 mi South 5.8 mph - N/A   Overcast
6:52 AM 52.0 °F 45.0 °F 77% 30.27 in 10.0 mi South 5.8 mph - N/A   Overcast
7:52 AM 53.1 °F 45.0 °F 74% 30.28 in 10.0 mi South 9.2 mph - N/A   Overcast
8:52 AM 54.0 °F 45.0 °F 72% 30.27 in 10.0 mi South 8.1 mph - N/A   Mostly Cloudy
9:52 AM 55.9 °F 46.0 °F 69% 30.28 in 10.0 mi South 8.1 mph - N/A   Overcast
10:52 AM 55.9 °F 46.9 °F 72% 30.27 in 10.0 mi South 10.4 mph - N/A   Overcast
11:52 AM 55.9 °F 46.9 °F 72% 30.25 in 10.0 mi South 10.4 mph - N/A   Overcast
12:14 PM 55.4 °F 46.4 °F 72% 30.23 in 9.0 mi South 11.5 mph - N/A   Overcast
12:52 PM 55.9 °F 46.9 °F 72% 30.22 in 7.0 mi South 13.8 mph - N/A   Overcast
1:35 PM 55.4 °F 50.0 °F 82% 30.20 in 6.0 mi South 10.4 mph 20.7 mph 0.00 in Rain Light Rain
1:52 PM 55.0 °F 50.0 °F 83% 30.19 in 8.0 mi South 8.1 mph - 0.00 in   Overcast
2:52 PM 55.0 °F 50.0 °F 83% 30.17 in 7.0 mi South 13.8 mph - 0.00 in Rain Light Rain
3:44 PM 55.4 °F 48.2 °F 77% 30.15 in 9.0 mi South 12.7 mph - N/A   Overcast
3:52 PM 55.0 °F 48.9 °F 80% 30.15 in 8.0 mi South 10.4 mph - 0.00 in Rain Light Rain
4:29 PM 53.6 °F 50.0 °F 88% 30.14 in 6.0 mi SSE 10.4 mph - 0.01 in Rain Light Rain
4:52 PM 53.1 °F 50.0 °F 89% 30.13 in 7.0 mi SSE 9.2 mph - 0.01 in Rain Light Rain
5:52 PM 54.0 °F 48.9 °F 83% 30.12 in 8.0 mi SSE 9.2 mph - 0.01 in   Overcast
6:52 PM 54.0 °F 46.9 °F 77% 30.10 in 10.0 mi South 11.5 mph - N/A   Scattered Clouds
7:52 PM 54.0 °F 46.0 °F 75% 30.07 in 10.0 mi South 10.4 mph - N/A   Mostly Cloudy
8:52 PM 55.0 °F 45.0 °F 69% 30.04 in 10.0 mi SSE 13.8 mph - N/A   Mostly Cloudy
9:52 PM 57.0 °F 46.0 °F 67% 30.03 in 10.0 mi South 23.0 mph 32.2 mph N/A   Overcast
10:08 PM 55.4 °F 48.2 °F 77% 30.02 in 8.0 mi South 19.6 mph 31.1 mph 0.00 in Rain Light Rain
10:36 PM 53.6 °F 48.2 °F 82% 30.01 in 3.0 mi South 18.4 mph 31.1 mph 0.00 in   Haze
10:52 PM 54.0 °F 50.0 °F 86% 29.99 in 7.0 mi South 18.4 mph 27.6 mph 0.00 in   Overcast
11:13 PM 53.6 °F 50.0 °F 88% 29.98 in 9.0 mi South 16.1 mph - N/A   Overcast
11:52 PM 55.0 °F 48.9 °F 80% 29.97 in 10.0 mi South 12.7 mph 23.0 mph N/A   Overcast